Data for 06/01/2017

Time Sea-Level Adjusted Pressure Absolute Pressure Temperature Relative Humidity Dew Point   
(mb) (inHg) (mb) (inHg) (C) (F) (%) (C) (F)
00:05 1013 29.91 843 24.89 17.6 63.6 36 2.4 36.3
00:10 1013 29.91 843 24.89 17.5 63.5 36 2.2 36
00:15 1013 29.91 843 24.89 17.3 63.1 37 2.7 36.9
00:20 1013 29.91 843 24.89 17 62.6 37 2.4 36.3
00:25 1013 29.91 843 24.89 17.1 62.7 36 2.2 35.9
00:30 1013 29.91 843 24.89 17.2 62.9 36 2.2 36
00:35 1013 29.91 843 24.89 17.1 62.8 37 2.3 36.1
00:40 1013 29.91 843 24.89 17.1 62.8 37 2.3 36.1
00:45 1013 29.91 843 24.89 17 62.6 36 2.1 35.8
00:50 1013 29.91 843 24.89 16.9 62.5 37 2.2 35.9
00:55 1013 29.91 843 24.89 16.8 62.2 37 2.3 36.1
01:00 1013 29.91 843 24.89 16.6 61.9 38 2.3 36.1
01:05 1014 29.94 843 24.89 16.6 61.9 39 2.7 36.8
01:10 1014 29.94 843 24.89 16.4 61.5 41 3.1 37.6
01:15 1014 29.94 843 24.89 16.1 60.9 41 3.1 37.6
01:20 1014 29.94 843 24.89 15.8 60.4 43 3.5 38.2
01:25 1014 29.94 843 24.89 15.3 59.5 45 3.4 38.1
01:30 1014 29.94 843 24.89 14.7 58.5 46 3.5 38.2
01:35 1014 29.94 843 24.89 14.4 57.8 46 3 37.4
01:40 1014 29.94 843 24.89 14.4 58 46 3.1 37.5
01:45 1014 29.94 844 24.92 14.5 58 47 3.3 38
01:50 1014 29.94 843 24.89 14.5 58.1 47 3.3 37.9
01:55 1014 29.94 843 24.89 14.6 58.2 46 3.2 37.8
02:00 1014 29.94 843 24.89 14.8 58.7 44 2.8 37
02:05 1014 29.94 843 24.89 14.8 58.7 45 3.2 37.8
02:10 1014 29.94 843 24.89 14.5 58 46 3.2 37.8
02:15 1014 29.94 843 24.89 14.2 57.5 48 3.3 38
02:20 1014 29.94 843 24.89 13.9 57.1 49 3.4 38.1
02:25 1014 29.94 843 24.89 13.9 57 48 3.2 37.8
02:30 1014 29.94 843 24.89 13.9 57 46 2.6 36.7
02:35 1014 29.94 843 24.89 14.4 57.8 45 2.8 37
02:40 1014 29.94 843 24.89 14.2 57.5 46 2.8 37
02:45 1014 29.94 843 24.89 13.9 57.1 48 3.1 37.5
02:50 1014 29.94 843 24.89 13.9 56.9 47 2.8 37
02:55 1014 29.94 843 24.89 13.9 57 50 3.6 38.5
03:00 1014 29.94 843 24.89 13 55.4 51 3.2 37.8
03:05 1013 29.91 843 24.89 12.7 54.9 51 3 37.4
03:10 1013 29.91 843 24.89 13.1 55.6 48 2.4 36.3
03:15 1013 29.91 843 24.89 13.6 56.5 47 2.7 36.8
03:20 1013 29.91 843 24.89 13.7 56.7 46 2.4 36.3
03:25 1013 29.91 843 24.89 13.7 56.7 48 2.9 37.3
03:30 1013 29.91 842 24.86 13.8 56.9 44 1.9 35.5
03:35 1013 29.91 842 24.86 14.1 57.4 45 2.5 36.4
03:40 1013 29.91 842 24.86 13.9 57 45 2.1 35.8
03:45 1013 29.91 843 24.89 14.5 58 40 1.1 34
03:50 1013 29.91 843 24.89 15.4 59.6 39 1.7 35.1
03:55 1013 29.91 843 24.89 14.9 58.7 46 3.4 38.2
04:00 1013 29.91 843 24.89 14.3 57.8 45 2.6 36.7
04:05 1013 29.91 843 24.89 13.9 57.1 44 1.8 35.3
04:10 1013 29.91 843 24.89 14.5 58 41 1.4 34.5
04:15 1013 29.91 843 24.89 14.6 58.3 42 2 35.5
04:20 1013 29.91 843 24.89 14.4 57.9 42 1.7 35.1
04:25 1013 29.91 843 24.89 14.6 58.4 41 1.5 34.7
04:30 1013 29.91 843 24.89 14.7 58.5 40 1.4 34.5
04:35 1014 29.94 843 24.89 14.9 58.9 39 1.2 34.2
04:40 1014 29.94 843 24.89 15.1 59.2 39 1.5 34.7
04:45 1014 29.94 843 24.89 15.1 59.2 39 1.2 34.2
04:50 1014 29.94 843 24.89 15.1 59.2 39 1.5 34.6
04:55 1014 29.94 843 24.89 14.8 58.6 41 1.7 35.1
05:00 1014 29.94 843 24.89 14.4 58 42 1.9 35.4
05:05 1014 29.94 843 24.89 14.1 57.3 41 1.3 34.3
05:10 1014 29.94 843 24.89 14.6 58.3 43 2.4 36.4
05:15 1014 29.94 843 24.89 14.7 58.5 40 1.3 34.3
05:20 1014 29.94 843 24.89 14.9 58.8 42 2.1 35.9
05:25 1014 29.94 843 24.89 15 59 39 1.3 34.4
05:30 1014 29.94 843 24.89 15.1 59.2 40 1.5 34.8
05:35 1014 29.94 843 24.89 15.3 59.6 39 1.6 34.9
05:40 1014 29.94 843 24.89 15.4 59.8 38 1.4 34.5
05:45 1014 29.94 843 24.89 15.6 60.1 38 1.4 34.5
05:50 1014 29.94 843 24.89 15.7 60.3 37 1.3 34.3
05:55 1014 29.94 843 24.89 16 60.8 38 1.9 35.4
06:00 1014 29.94 843 24.89 16 60.8 39 2 35.6
06:05 1014 29.94 843 24.89 16 60.9 39 2.1 35.8
06:10 1014 29.94 843 24.89 16.2 61.2 38 2 35.5
06:15 1014 29.94 844 24.92 16.4 61.5 40 2.9 37.2
06:20 1014 29.94 844 24.92 16.4 61.4 42 3.6 38.5
06:25 1015 29.97 844 24.92 16.1 61 43 3.6 38.5
06:30 1015 29.97 844 24.92 15.9 60.6 45 4.1 39.3
06:35 1015 29.97 844 24.92 15.5 59.8 47 4.2 39.6
06:40 1015 29.97 844 24.92 15.3 59.6 47 4.2 39.5
06:45 1015 29.97 844 24.92 15.4 59.8 47 4.3 39.7
06:50 1015 29.97 844 24.92 15.3 59.6 48 4.4 39.9
06:55 1015 29.97 844 24.92 14.9 58.8 48 4.1 39.4
07:00 1015 29.97 844 24.92 14.6 58.3 49 4.2 39.6
07:05 1015 29.97 844 24.92 14.3 57.7 50 4.1 39.3
07:10 1015 29.97 844 24.92 14.4 58 51 4.5 40
07:15 1015 29.97 844 24.92 14.6 58.2 49 4.1 39.4
07:20 1015 29.97 844 24.92 14.8 58.7 50 4.5 40.1
07:25 1015 29.97 844 24.92 15.1 59.2 49 4.5 40.1
07:30 1015 29.97 844 24.92 15.4 59.8 48 4.6 40.4
07:35 1015 29.97 844 24.92 15.4 59.7 48 4.6 40.3
07:40 1015 29.97 844 24.92 15.6 60 47 4.4 39.9
07:45 1015 29.97 844 24.92 15.5 60 47 4.5 40.1
07:50 1015 29.97 844 24.92 15.6 60.1 47 4.4 39.9
07:55 1015 29.97 844 24.92 15.6 60.2 49 5 41
08:00 1015 29.97 844 24.92 15.7 60.2 51 5.6 42
08:05 1015 29.97 844 24.92 15.8 60.4 52 5.9 42.6
08:10 1015 29.97 844 24.92 15.8 60.5 52 6 42.7
08:15 1015 29.97 844 24.92 16 60.8 52 6.2 43.2
08:20 1015 29.97 844 24.92 15.8 60.4 53 6.3 43.3
08:25 1015 29.97 844 24.92 16.3 61.4 51 6.2 43.1
08:30 1015 29.97 844 24.92 16.6 62 49 6 42.8
08:35 1014 29.94 844 24.92 16.7 62.1 51 6.7 44
08:40 1014 29.94 843 24.89 16.4 61.5 54 7.3 45.1
08:45 1014 29.94 843 24.89 16.2 61.2 54 7.1 44.8
08:50 1014 29.94 843 24.89 16.6 61.9 51 6.5 43.7
08:55 1014 29.94 843 24.89 17.1 62.8 53 7.5 45.6
09:00 1014 29.94 843 24.89 17.5 63.4 52 7.7 45.8
09:05 1014 29.94 843 24.89 18 64.4 46 6.3 43.3
09:10 1014 29.94 843 24.89 18.8 65.9 43 6.2 43.2
09:15 1014 29.94 843 24.89 19.4 66.9 40 5.5 41.9
09:20 1014 29.94 843 24.89 20.2 68.3 39 6 42.9
09:25 1014 29.94 843 24.89 20.7 69.2 37 5.7 42.2
09:30 1014 29.94 843 24.89 21 69.9 34 4.7 40.4
09:35 1014 29.94 843 24.89 21.4 70.4 35 5.4 41.7
09:40 1014 29.94 843 24.89 21.6 70.9 33 4.7 40.5
09:45 1014 29.94 843 24.89 21.9 71.3 36 6.2 43.2
09:50 1014 29.94 843 24.89 22.2 72 33 5.4 41.7
09:55 1014 29.94 843 24.89 22.8 73 27 2.9 37.2
10:00 1013 29.91 843 24.89 23.5 74.3 24 2 35.6
10:05 1013 29.91 843 24.89 23.7 74.6 24 1.9 35.4
10:10 1013 29.91 843 24.89 23.8 74.8 32 6.5 43.7
10:15 1014 29.94 843 24.89 22.5 72.4 39 8 46.4
10:20 1014 29.94 843 24.89 21.9 71.4 42 8.5 47.3
10:25 1014 29.94 843 24.89 21.4 70.4 45 9 48.2
10:30 1014 29.94 843 24.89 21.6 71 41 8.1 46.7
10:35 1014 29.94 843 24.89 22.4 72.2 39 8.1 46.5
10:40 1014 29.94 843 24.89 22.3 72.1 40 8.2 46.7
10:45 1014 29.94 843 24.89 22.4 72.3 41 8.6 47.5
10:50 1014 29.94 843 24.89 21.8 71.3 42 8.5 47.3
10:55 1014 29.94 843 24.89 21.4 70.6 40 7.4 45.4
11:00 1014 29.94 843 24.89 21.5 70.7 41 7.7 45.9
11:05 1014 29.94 843 24.89 21.8 71.3 39 7.6 45.6
11:10 1014 29.94 843 24.89 22.1 71.9 38 7.2 44.9
11:15 1014 29.94 843 24.89 22.3 72.2 37 7 44.7
11:20 1014 29.94 843 24.89 22.4 72.3 34 6 42.8
11:25 1014 29.94 843 24.89 22.1 71.8 35 6.3 43.4
11:30 1014 29.94 843 24.89 22.2 72 35 6.1 43
11:35 1013 29.91 843 24.89 22.7 72.8 34 6.1 43
11:40 1013 29.91 843 24.89 23.3 73.9 34 6.9 44.5
11:45 1013 29.91 843 24.89 23 73.4 33 6.1 42.9
11:50 1013 29.91 843 24.89 23.5 74.2 32 6.1 42.9
11:55 1013 29.91 843 24.89 24 75.1 32 6.3 43.3
12:00 1013 29.91 843 24.89 23.8 74.9 31 6 42.7
12:05 1013 29.91 842 24.86 24 75.2 33 6.8 44.2
12:10 1013 29.91 842 24.86 23.2 73.7 32 5.7 42.3
12:15 1013 29.91 843 24.89 23.7 74.6 32 6 42.9
12:20 1013 29.91 842 24.86 24 75.1 32 6.5 43.7
12:25 1013 29.91 842 24.86 23.8 74.8 31 5.7 42.3
12:30 1013 29.91 842 24.86 24.2 75.6 31 6.2 43.1
12:35 1013 29.91 842 24.86 23.8 74.9 32 6.5 43.7
12:40 1013 29.91 842 24.86 23.2 73.7 32 5.9 42.6
12:45 1013 29.91 842 24.86 23.6 74.5 29 4.9 40.8
12:50 1013 29.91 842 24.86 23.7 74.6 30 5.4 41.7
12:55 1013 29.91 842 24.86 23.9 75.1 30 5.6 42
13:00 1013 29.91 842 24.86 24.6 76.3 26 4.1 39.4
13:05 1013 29.91 842 24.86 25 76.9 27 4.9 40.9
13:10 1013 29.91 842 24.86 24.7 76.5 27 4.7 40.4
13:15 1013 29.91 842 24.86 25.2 77.4 24 3.3 37.9
13:20 1013 29.91 842 24.86 26 78.8 24 4.3 39.7
13:25 1013 29.91 842 24.86 25.5 78 25 4.3 39.7
13:30 1013 29.91 842 24.86 25.7 78.2 24 3.8 38.8
13:35 1013 29.91 842 24.86 25.5 77.8 23 3 37.4
13:40 1013 29.91 842 24.86 25.2 77.3 25 4 39.2
13:45 1013 29.91 842 24.86 25.2 77.4 22 2.5 36.6
13:50 1013 29.91 842 24.86 25.3 77.6 24 3.6 38.4
13:55 1013 29.91 842 24.86 25.2 77.4 25 4.2 39.5
14:00 1013 29.91 842 24.86 25 76.9 26 4.1 39.5
14:05 1013 29.91 842 24.86 24.9 76.8 26 4.3 39.7
14:10 1013 29.91 842 24.86 25 76.9 26 4.6 40.3
14:15 1013 29.91 842 24.86 24.9 76.7 27 4.6 40.3
14:20 1013 29.91 842 24.86 24.6 76.4 24 3.1 37.5
14:25 1013 29.91 842 24.86 24.4 75.8 22 1.8 35.2
14:30 1013 29.91 842 24.86 24 75.3 22 1.1 34
14:35 1013 29.91 842 24.86 23.9 74.9 21 0.7 33.2
14:40 1013 29.91 842 24.86 23.9 74.9 21 0.7 33.3
14:45 1013 29.91 842 24.86 24.1 75.3 21 0.3 32.5
14:50 1013 29.91 842 24.86 24.1 75.3 20 -0.2 31.6
14:55 1013 29.91 842 24.86 24 75.3 20 -0.3 31.4
15:00 1013 29.91 842 24.86 24.1 75.4 19 -0.7 30.8
15:05 1013 29.91 842 24.86 24 75.2 21 0.6 33.1
15:10 1013 29.91 842 24.86 23.8 74.8 21 0.2 32.3
15:15 1013 29.91 842 24.86 23.7 74.6 20 -0.3 31.4
15:20 1013 29.91 842 24.86 23.6 74.4 19 -1 30.2
15:25 1013 29.91 842 24.86 23.5 74.3 19 -1.1 30.1
15:30 1013 29.91 842 24.86 23.4 74.2 19 -1 30.2
15:35 1013 29.91 842 24.86 23.1 73.6 22 0.4 32.8
15:40 1013 29.91 842 24.86 22.8 73.1 21 -0.2 31.6
15:45 1013 29.91 842 24.86 22.8 73 21 -0.4 31.3
15:50 1013 29.91 842 24.86 22.8 73 21 -0.6 30.9
15:55 1013 29.91 842 24.86 22.8 73 22 0.2 32.3
16:00 1013 29.91 842 24.86 22.8 73.1 21 -0.3 31.5
16:05 1013 29.91 842 24.86 22.8 73.1 21 -0.4 31.3
16:10 1013 29.91 842 24.86 23 73.5 19 -1.5 29.3
16:15 1013 29.91 842 24.86 23.2 73.7 18 -2.5 27.5
16:20 1013 29.91 842 24.86 23.3 73.9 15 -4.3 24.2
16:25 1013 29.91 842 24.86 23.3 74 18 -1.9 28.5
16:30 1013 29.91 842 24.86 23.2 73.7 17 -2.7 27.1
16:35 1013 29.91 842 24.86 23.1 73.6 19 -1.7 28.9
16:40 1013 29.91 842 24.86 23.2 73.7 18 -2.6 27.4
16:45 1013 29.91 842 24.86 23.1 73.7 18 -2.2 28
16:50 1013 29.91 842 24.86 23 73.3 17 -2.9 26.8
16:55 1013 29.91 842 24.86 23 73.3 17 -3.1 26.4
17:00 1013 29.91 842 24.86 22.9 73.2 18 -2.8 26.9
17:05 1013 29.91 842 24.86 22.9 73.1 18 -2.4 27.7
17:10 1013 29.91 842 24.86 22.9 73.1 16 -4.3 24.3
17:15 1013 29.91 842 24.86 23 73.4 18 -2.6 27.4
17:20 1013 29.91 842 24.86 22.8 73 18 -2.7 27.1
17:25 1013 29.91 842 24.86 22.8 73 18 -2.5 27.5
17:30 1013 29.91 842 24.86 22.7 72.9 18 -2.5 27.5
17:35 1013 29.91 842 24.86 22.6 72.8 19 -1.9 28.6
17:40 1013 29.91 842 24.86 22.6 72.7 18 -2.5 27.4
17:45 1013 29.91 842 24.86 22.7 72.9 18 -2.7 27.2
17:50 1013 29.91 842 24.86 22.7 72.8 19 -2 28.5
17:55 1013 29.91 842 24.86 22.6 72.6 19 -2.2 28
18:00 1013 29.91 842 24.86 22.7 72.8 20 -1.1 30
18:05 1013 29.91 842 24.86 22.6 72.7 20 -1.3 29.7
18:10 1013 29.91 842 24.86 22.7 72.9 22 0.4 32.7
18:15 1013 29.91 842 24.86 22 71.5 34 5.4 41.7
18:20 1013 29.91 842 24.86 20.4 68.7 37 5.5 41.9
18:25 1013 29.91 843 24.89 19.7 67.5 39 5.6 42.1
18:30 1013 29.91 843 24.89 19.4 66.8 40 5.7 42.3
18:35 1013 29.91 843 24.89 19.1 66.3 41 5.7 42.3
18:40 1014 29.94 843 24.89 18.9 66 42 5.9 42.6
18:45 1014 29.94 843 24.89 18.8 65.8 43 5.9 42.6
18:50 1014 29.94 843 24.89 18.6 65.5 43 5.8 42.5
18:55 1014 29.94 843 24.89 18.4 65.2 44 6 42.9
19:00 1014 29.94 844 24.92 18.3 65 44 6 42.7
19:05 1015 29.97 844 24.92 18.2 64.8 45 6.2 43.2
19:10 1015 29.97 844 24.92 18.2 64.7 45 6.1 43
19:15 1015 29.97 844 24.92 18.1 64.5 45 6.2 43.2
19:20 1015 29.97 844 24.92 17.9 64.3 45 6.1 43
19:25 1015 29.97 844 24.92 17.8 64 45 6 42.7
19:30 1015 29.97 844 24.92 17.7 63.9 46 6 42.8
19:35 1015 29.97 844 24.92 17.6 63.7 46 6 42.8
19:40 1015 29.97 844 24.92 17.6 63.6 45 5.8 42.4
19:45 1015 29.97 844 24.92 17.6 63.6 46 5.9 42.6
19:50 1015 29.97 844 24.92 17.5 63.5 46 5.9 42.6
19:55 1015 29.97 844 24.92 17.5 63.4 45 5.6 42
20:00 1015 29.97 844 24.92 17.4 63.3 44 5.1 41.2
20:05 1015 29.97 844 24.92 17.4 63.4 43 4.9 40.8
20:10 1015 29.97 844 24.92 17.4 63.4 45 5.4 41.7
20:15 1015 29.97 844 24.92 17.4 63.3 44 5 41
20:20 1015 29.97 845 24.95 17.3 63.2 44 5.2 41.4
20:25 1015 29.97 845 24.95 17.1 62.9 48 6.3 43.3
20:30 1016 30 845 24.95 16.7 62 50 6.4 43.5
20:35 1016 30 845 24.95 16.4 61.6 53 6.9 44.4
20:40 1016 30 845 24.95 16.2 61.1 53 6.6 44
20:45 1015 29.97 845 24.95 16.1 61 54 6.8 44.2
20:50 1015 29.97 844 24.92 16.2 61.1 52 6.5 43.7
20:55 1015 29.97 845 24.95 16.2 61.2 51 6.2 43.2
21:00 1016 30 845 24.95 16.3 61.3 51 6.3 43.4
21:05 1016 30 845 24.95 16.1 61 52 6.4 43.6
21:10 1016 30 845 24.95 15.8 60.5 54 6.7 44.1
21:15 1016 30 845 24.95 15.6 60 56 6.9 44.5
21:20 1016 30 845 24.95 15.2 59.4 60 7.6 45.7
21:25 1016 30 845 24.95 14.8 58.7 61 7.4 45.3
21:30 1016 30 845 24.95 14.7 58.5 65 8.2 46.8
21:35 1015 29.97 845 24.95 14.5 58.1 67 8.5 47.3
21:40 1015 29.97 845 24.95 14.3 57.7 68 8.6 47.4
21:45 1015 29.97 844 24.92 14.1 57.4 69 8.6 47.4
21:50 1015 29.97 844 24.92 13.9 57.1 70 8.6 47.5
21:55 1015 29.97 844 24.92 13.8 56.8 69 8.2 46.8
22:00 1015 29.97 845 24.95 13.7 56.7 69 8.1 46.6
22:05 1016 30 845 24.95 13.8 56.8 69 8.3 47
22:10 1016 30 845 24.95 13.6 56.5 72 8.8 47.8
22:15 1016 30 845 24.95 13.4 56 74 8.8 47.8
22:20 1016 30 845 24.95 13.3 55.9 74 8.8 47.8
22:25 1016 30 845 24.95 13.3 56 73 8.5 47.4
22:30 1016 30 845 24.95 13.3 56 72 8.5 47.3
22:35 1016 30 845 24.95 13.3 55.9 74 8.7 47.6
22:40 1016 30 845 24.95 13.1 55.5 75 8.8 47.8
22:45 1016 30 845 24.95 12.9 55.3 75 8.7 47.7
22:50 1016 30 845 24.95 12.9 55.2 76 8.7 47.7
22:55 1016 30 845 24.95 13 55.3 76 8.8 47.9
23:00 1016 30 845 24.95 13 55.3 76 8.9 48
23:05 1016 30 845 24.95 13 55.3 76 8.8 47.9
23:10 1016 30 845 24.95 13 55.5 75 8.8 47.8
23:15 1016 30 845 24.95 12.9 55.2 77 9 48.3
23:20 1016 30 845 24.95 12.4 54.2 79 8.9 47.9
23:25 1016 30 845 24.95 12.3 54.1 78 8.6 47.4
23:30 1016 30 845 24.95 12.4 54.3 78 8.6 47.5
23:35 1016 30 845 24.95 12.5 54.6 76 8.5 47.3
23:40 1016 30 845 24.95 12.8 55 75 8.5 47.4
23:45 1016 30 845 24.95 12.9 55.2 75 8.5 47.3
23:50 1016 30 845 24.95 12.9 55.1 75 8.6 47.4
23:55 1016 30 845 24.95 12.8 55 75 8.6 47.4
24:00 1016 30 845 24.95 12.7 54.9 74 8.3 47